Simultaneous Nadir Overpasses (SNOs) Predictions

Prediction of SNOs between GOES-16 and TERRA Satellite Orbit:

Table of predicted SNOs for the next 14.0 days since TLE Epoch: 4/6/2019
Index Date Time (GOES-16) GOES-16 Lat,Lon TERRA Lat,Lon Distance(km) Time Diff (sec)
1 04/06/2019 15:24:15 -0.01, -75.21 -0.33, -73.82 158.11 80
2 04/07/2019 03:48:19 0.01, -75.20 -0.79, -79.01 433.61 80
3 04/08/2019 15:12:03 -0.01, -75.21 -0.92, -70.86 494.79 80
4 04/09/2019 03:36:07 0.00, -75.20 -0.20, -76.05 96.92 80
5 04/11/2019 03:21:16 0.00, -75.21 0.44, -73.10 239.96 80
6 04/11/2019 15:42:31 -0.00, -75.22 0.63, -78.26 344.73 80
7 04/13/2019 15:30:19 0.00, -75.23 0.04, -75.29 8.23 80
8 04/15/2019 15:20:49 0.00, -75.25 -0.60, -72.34 330.04 80
9 04/16/2019 03:42:12 -0.00, -75.24 -0.51, -77.53 261.24 80
10 04/18/2019 03:27:21 -0.00, -75.26 0.13, -74.58 77.41 80




NCC Satellite Simultaneous Nadir Overpasses (SNOs) Prediction Service
